Wetterdaten: Woche 04.05.15 - 10.05.15 (KW19)
Datum Zeit Temp. A. Feuchte A. Luftdruck Regen Wind Richtung Sonnenschein ET UV Solar Taupunkt Windchill Windben Empfang
04.05.2015 00:00 13,6 C 98 % 1008,7 hPa 0,0 l/m 0,0 km/h (0 Bft) N 0,00 h 0,000 mm 0,0 UV-I 0 W/m 13,3 C 13,6 C 0,0 km/h (0 Bft) 0,00 %
04.05.2015 01:00 13,5 C 98 % 1008,5 hPa 0,0 l/m 0,0 km/h (0 Bft) N 0,00 h 0,000 mm 0,0 UV-I 0 W/m 13,2 C 13,5 C 0,0 km/h (0 Bft) 0,00 %
04.05.2015 02:00 13,3 C 99 % 1008,6 hPa 0,0 l/m 0,4 km/h (0 Bft) W 0,00 h 0,000 mm 0,0 UV-I 0 W/m 13,2 C 13,3 C 1,0 km/h (0 Bft) 0,00 %
04.05.2015 03:00 13,3 C 99 % 1008,9 hPa 0,0 l/m 0,0 km/h (0 Bft) N 0,00 h 0,000 mm 0,0 UV-I 0 W/m 13,1 C 13,3 C 0,0 km/h (0 Bft) 0,00 %
04.05.2015 04:00 13,2 C 99 % 1009,4 hPa 0,6 l/m 0,0 km/h (0 Bft) N 0,00 h 0,000 mm 0,0 UV-I 0 W/m 13,0 C 13,2 C 0,0 km/h (0 Bft) 0,00 %
04.05.2015 05:00 13,4 C 98 % 1009,5 hPa 0,3 l/m 0,0 km/h (0 Bft) N 0,00 h 0,000 mm 0,0 UV-I 0 W/m 13,1 C 13,4 C 0,0 km/h (0 Bft) 0,00 %
04.05.2015 06:00 13,6 C 97 % 1010,0 hPa 0,0 l/m 0,0 km/h (0 Bft) N 0,00 h 0,000 mm 0,0 UV-I 15 W/m 13,1 C 13,6 C 0,0 km/h (0 Bft) 0,00 %
04.05.2015 07:00 14,0 C 97 % 1010,7 hPa 0,0 l/m 0,0 km/h (0 Bft) N 0,00 h 0,000 mm 1,0 UV-I 66 W/m 13,5 C 14,0 C 0,0 km/h (0 Bft) 0,00 %
04.05.2015 08:00 14,6 C 95 % 1011,0 hPa 0,0 l/m 0,1 km/h (0 Bft) N 0,00 h 0,000 mm 1,0 UV-I 88 W/m 13,8 C 14,6 C 1,0 km/h (0 Bft) 0,00 %
04.05.2015 09:00 16,0 C 86 % 1010,6 hPa 0,0 l/m 0,9 km/h (0 Bft) S-SW 0,00 h 0,000 mm 1,3 UV-I 171 W/m 13,7 C 16,0 C 3,0 km/h (1 Bft) 0,00 %
04.05.2015 10:00 17,6 C 80 % 1010,4 hPa 0,0 l/m 0,4 km/h (0 Bft) W-SW 0,00 h 0,000 mm 2,7 UV-I 317 W/m 14,1 C 17,6 C 2,0 km/h (1 Bft) 0,00 %
04.05.2015 11:00 19,5 C 68 % 1009,9 hPa 0,0 l/m 1,4 km/h (1 Bft) W-SW 0,75 h 0,000 mm 3,3 UV-I 445 W/m 13,5 C 19,5 C 2,0 km/h (1 Bft) 0,00 %
04.05.2015 12:00 19,2 C 67 % 1009,7 hPa 0,0 l/m 0,2 km/h (0 Bft) N 0,00 h 0,000 mm 1,7 UV-I 319 W/m 12,9 C 19,2 C 2,0 km/h (1 Bft) 0,00 %
04.05.2015 13:00 18,8 C 70 % 1009,8 hPa 0,0 l/m 0,9 km/h (0 Bft) O-SO 0,25 h 0,000 mm 4,0 UV-I 399 W/m 13,2 C 18,8 C 3,0 km/h (1 Bft) 0,00 %
04.05.2015 14:00 20,2 C 64 % 1009,2 hPa 0,0 l/m 0,8 km/h (0 Bft) W-SW 0,50 h 0,000 mm 2,7 UV-I 383 W/m 13,1 C 20,2 C 2,0 km/h (1 Bft) 0,00 %
04.05.2015 15:00 20,5 C 64 % 1008,8 hPa 0,0 l/m 0,1 km/h (0 Bft) N-NO 0,75 h 0,000 mm 3,0 UV-I 429 W/m 13,4 C 20,5 C 1,0 km/h (0 Bft) 0,00 %
04.05.2015 16:00 20,7 C 64 % 1008,6 hPa 0,0 l/m 2,2 km/h (1 Bft) O 1,00 h 0,000 mm 2,0 UV-I 367 W/m 13,6 C 20,7 C 4,0 km/h (1 Bft) 0,00 %
04.05.2015 17:00 20,7 C 66 % 1008,6 hPa 0,0 l/m 1,1 km/h (1 Bft) SO 0,75 h 0,000 mm 1,3 UV-I 352 W/m 14,0 C 20,7 C 3,0 km/h (1 Bft) 0,00 %
04.05.2015 18:00 20,4 C 68 % 1008,8 hPa 0,0 l/m 0,0 km/h (0 Bft) O-SO 1,00 h 0,000 mm 1,0 UV-I 236 W/m 14,3 C 20,4 C 0,0 km/h (0 Bft) 0,00 %
04.05.2015 19:00 19,3 C 75 % 1009,3 hPa 0,0 l/m 0,8 km/h (0 Bft) SO 0,50 h 0,000 mm 1,0 UV-I 68 W/m 14,8 C 19,3 C 2,0 km/h (1 Bft) 0,00 %
04.05.2015 20:00 17,5 C 81 % 1010,2 hPa 0,0 l/m 0,0 km/h (0 Bft) N 0,00 h 0,000 mm 0,0 UV-I 0 W/m 14,2 C 17,5 C 0,0 km/h (0 Bft) 0,00 %
04.05.2015 21:00 16,8 C 82 % 1010,0 hPa 0,0 l/m 0,1 km/h (0 Bft) N 0,00 h 0,000 mm 0,0 UV-I 0 W/m 13,7 C 16,8 C 1,0 km/h (0 Bft) 0,00 %
04.05.2015 22:00 15,8 C 87 % 1009,7 hPa 0,0 l/m 0,3 km/h (0 Bft) SO 0,00 h 0,000 mm 0,0 UV-I 0 W/m 13,6 C 15,8 C 1,0 km/h (0 Bft) 0,00 %
04.05.2015 23:00 15,1 C 91 % 1009,4 hPa 0,0 l/m 0,0 km/h (0 Bft) N 0,00 h 0,000 mm 0,0 UV-I 0 W/m 13,5 C 15,1 C 0,0 km/h (0 Bft) 0,00 %
05.05.2015 00:00 14,2 C 94 % 1008,8 hPa 0,0 l/m 0,0 km/h (0 Bft) N 0,00 h 0,000 mm 0,0 UV-I 0 W/m 13,2 C 14,2 C 0,0 km/h (0 Bft) 0,00 %
05.05.2015 01:00 14,3 C 95 % 1008,3 hPa 0,0 l/m 0,2 km/h (0 Bft) N 0,00 h 0,000 mm 0,0 UV-I 0 W/m 13,5 C 14,3 C 1,0 km/h (0 Bft) 0,00 %
05.05.2015 02:00 14,1 C 96 % 1007,9 hPa 0,0 l/m 0,0 km/h (0 Bft) N 0,00 h 0,000 mm 0,0 UV-I 0 W/m 13,4 C 14,1 C 0,0 km/h (0 Bft) 0,00 %
05.05.2015 03:00 13,8 C 96 % 1007,2 hPa 0,0 l/m 0,1 km/h (0 Bft) N 0,00 h 0,000 mm 0,0 UV-I 0 W/m 13,2 C 13,8 C 1,0 km/h (0 Bft) 0,00 %
05.05.2015 04:00 13,4 C 97 % 1006,7 hPa 0,0 l/m 0,7 km/h (0 Bft) O-SO 0,00 h 0,000 mm 0,0 UV-I 0 W/m 13,0 C 13,4 C 2,0 km/h (1 Bft) 0,00 %
05.05.2015 05:00 13,4 C 97 % 1006,6 hPa 0,0 l/m 1,5 km/h (1 Bft) O 0,00 h 0,000 mm 0,0 UV-I 0 W/m 13,0 C 13,4 C 3,0 km/h (1 Bft) 0,00 %
05.05.2015 06:00 14,1 C 98 % 1006,3 hPa 0,0 l/m 3,1 km/h (1 Bft) O 0,00 h 0,000 mm 0,0 UV-I 18 W/m 13,7 C 14,1 C 4,0 km/h (1 Bft) 0,00 %
05.05.2015 07:00 14,2 C 98 % 1006,2 hPa 0,0 l/m 8,1 km/h (2 Bft) O 0,00 h 0,000 mm 1,0 UV-I 85 W/m 13,9 C 13,2 C 9,9 km/h (2 Bft) 0,00 %
05.05.2015 08:00 14,8 C 97 % 1006,2 hPa 0,0 l/m 7,8 km/h (2 Bft) O 0,00 h 0,000 mm 1,0 UV-I 166 W/m 14,2 C 13,9 C 10,9 km/h (2 Bft) 0,00 %
05.05.2015 09:00 16,0 C 91 % 1005,7 hPa 0,0 l/m 1,4 km/h (1 Bft) O-SO 0,25 h 0,000 mm 2,3 UV-I 289 W/m 14,4 C 16,0 C 3,0 km/h (1 Bft) 0,00 %
05.05.2015 10:00 18,7 C 80 % 1005,1 hPa 0,0 l/m 4,5 km/h (1 Bft) O 0,75 h 0,000 mm 3,7 UV-I 476 W/m 15,2 C 18,5 C 6,9 km/h (2 Bft) 0,00 %
05.05.2015 11:00 20,3 C 77 % 1004,5 hPa 0,0 l/m 4,2 km/h (1 Bft) O-NO 0,75 h 0,000 mm 4,3 UV-I 626 W/m 16,0 C 19,9 C 7,9 km/h (2 Bft) 0,00 %
05.05.2015 12:00 21,5 C 73 % 1003,8 hPa 0,0 l/m 7,0 km/h (2 Bft) O-SO 1,00 h 0,000 mm 5,0 UV-I 704 W/m 16,3 C 21,1 C 9,9 km/h (2 Bft) 0,00 %
05.05.2015 13:00 23,0 C 67 % 1003,2 hPa 0,0 l/m 5,9 km/h (2 Bft) O-SO 0,75 h 0,000 mm 4,7 UV-I 578 W/m 16,6 C 22,7 C 7,9 km/h (2 Bft) 0,00 %
05.05.2015 14:00 25,0 C 61 % 1002,9 hPa 0,0 l/m 1,5 km/h (1 Bft) SO 1,00 h 0,000 mm 4,7 UV-I 795 W/m 16,8 C 25,0 C 4,0 km/h (1 Bft) 0,00 %
05.05.2015 15:00 25,9 C 59 % 1002,9 hPa 0,0 l/m 0,1 km/h (0 Bft) N 0,50 h 0,000 mm 2,3 UV-I 390 W/m 17,2 C 25,9 C 1,0 km/h (0 Bft) 0,00 %
05.05.2015 16:00 26,1 C 59 % 1003,2 hPa 0,0 l/m 0,9 km/h (0 Bft) W-NW 0,25 h 0,000 mm 2,0 UV-I 354 W/m 17,3 C 26,1 C 2,0 km/h (1 Bft) 0,00 %
05.05.2015 17:00 26,4 C 58 % 1003,6 hPa 0,0 l/m 0,6 km/h (0 Bft) W-SW 1,00 h 0,000 mm 1,3 UV-I 481 W/m 17,4 C 26,4 C 3,0 km/h (1 Bft) 0,00 %
05.05.2015 18:00 25,2 C 65 % 1003,9 hPa 0,0 l/m 0,0 km/h (0 Bft) N 0,25 h 0,000 mm 1,0 UV-I 137 W/m 18,0 C 25,2 C 0,0 km/h (0 Bft) 0,00 %
05.05.2015 19:00 23,3 C 59 % 1004,6 hPa 0,0 l/m 0,5 km/h (0 Bft) SW 0,00 h 0,000 mm 0,0 UV-I 54 W/m 14,7 C 23,3 C 2,0 km/h (1 Bft) 0,00 %
05.05.2015 20:00 21,2 C 63 % 1005,7 hPa 0,0 l/m 2,3 km/h (1 Bft) SW 0,25 h 0,000 mm 0,0 UV-I 0 W/m 13,9 C 21,2 C 4,0 km/h (1 Bft) 0,00 %
05.05.2015 21:00 20,5 C 60 % 1007,0 hPa 0,0 l/m 2,0 km/h (1 Bft) SW 0,00 h 0,000 mm 0,0 UV-I 0 W/m 12,4 C 20,5 C 4,0 km/h (1 Bft) 0,00 %
05.05.2015 22:00 19,8 C 61 % 1007,7 hPa 0,0 l/m 2,1 km/h (1 Bft) W-SW 0,00 h 0,000 mm 0,0 UV-I 0 W/m 12,1 C 19,8 C 4,9 km/h (1 Bft) 0,00 %
05.05.2015 23:00 19,5 C 61 % 1008,7 hPa 0,0 l/m 2,0 km/h (1 Bft) S-SW 0,00 h 0,000 mm 0,0 UV-I 0 W/m 11,7 C 19,5 C 4,0 km/h (1 Bft) 0,00 %
06.05.2015 00:00 18,8 C 64 % 1010,1 hPa 0,0 l/m 3,0 km/h (1 Bft) W-SW 0,00 h 0,000 mm 0,0 UV-I 0 W/m 11,8 C 18,8 C 4,9 km/h (1 Bft) 0,00 %
06.05.2015 01:00 17,0 C 71 % 1011,1 hPa 0,0 l/m 5,2 km/h (1 Bft) W-SW 0,00 h 0,000 mm 0,0 UV-I 0 W/m 11,7 C 16,3 C 6,9 km/h (2 Bft) 0,00 %
06.05.2015 02:00 16,3 C 74 % 1011,3 hPa 0,0 l/m 0,2 km/h (0 Bft) N 0,00 h 0,000 mm 0,0 UV-I 0 W/m 11,7 C 16,3 C 1,0 km/h (0 Bft) 0,00 %
06.05.2015 03:00 16,0 C 76 % 1011,4 hPa 0,0 l/m 1,4 km/h (1 Bft) W-SW 0,00 h 0,000 mm 0,0 UV-I 0 W/m 11,8 C 16,0 C 3,0 km/h (1 Bft) 0,00 %
06.05.2015 04:00 15,6 C 80 % 1011,7 hPa 0,0 l/m 0,2 km/h (0 Bft) N 0,00 h 0,000 mm 0,0 UV-I 0 W/m 12,1 C 15,6 C 1,0 km/h (0 Bft) 0,00 %
06.05.2015 05:00 15,3 C 83 % 1011,6 hPa 0,0 l/m 0,0 km/h (0 Bft) N 0,00 h 0,000 mm 0,0 UV-I 0 W/m 12,4 C 15,3 C 0,0 km/h (0 Bft) 0,00 %
06.05.2015 06:00 15,1 C 86 % 1012,0 hPa 0,0 l/m 0,2 km/h (0 Bft) N 0,00 h 0,000 mm 0,0 UV-I 10 W/m 12,7 C 15,1 C 2,0 km/h (1 Bft) 0,00 %
06.05.2015 07:00 15,2 C 86 % 1012,0 hPa 0,0 l/m 0,1 km/h (0 Bft) N 0,00 h 0,000 mm 0,0 UV-I 43 W/m 12,9 C 15,2 C 1,0 km/h (0 Bft) 0,00 %
06.05.2015 08:00 15,4 C 85 % 1012,1 hPa 0,0 l/m 0,0 km/h (0 Bft) N 0,00 h 0,000 mm 1,0 UV-I 91 W/m 12,9 C 15,4 C 0,0 km/h (0 Bft) 0,00 %
06.05.2015 09:00 16,2 C 81 % 1011,5 hPa 0,0 l/m 0,3 km/h (0 Bft) W-SW 0,00 h 0,000 mm 1,0 UV-I 156 W/m 13,0 C 16,2 C 1,0 km/h (0 Bft) 0,00 %
06.05.2015 10:00 17,7 C 77 % 1011,2 hPa 0,0 l/m 0,0 km/h (0 Bft) W-NW 0,00 h 0,000 mm 2,0 UV-I 270 W/m 13,5 C 17,7 C 0,0 km/h (0 Bft) 0,00 %
06.05.2015 11:00 17,4 C 79 % 1011,8 hPa 0,0 l/m 0,5 km/h (0 Bft) W 0,00 h 0,000 mm 1,0 UV-I 132 W/m 13,6 C 17,4 C 2,0 km/h (1 Bft) 0,00 %
06.05.2015 12:00 13,6 C 89 % 1013,4 hPa 5,1 l/m 4,4 km/h (1 Bft) W-SW 0,00 h 0,000 mm 1,3 UV-I 179 W/m 11,7 C 13,3 C 8,9 km/h (2 Bft) 0,00 %
06.05.2015 13:00 13,3 C 90 % 1015,0 hPa 2,4 l/m 2,1 km/h (1 Bft) W 0,00 h 0,000 mm 1,3 UV-I 0 W/m 11,7 C 13,3 C 6,9 km/h (2 Bft) 0,00 %
06.05.2015 14:00 13,8 C 88 % 1015,6 hPa 0,9 l/m 1,3 km/h (1 Bft) S 0,25 h 0,000 mm 1,3 UV-I 274 W/m 11,8 C 13,8 C 3,0 km/h (1 Bft) 0,00 %
06.05.2015 15:00 13,5 C 86 % 1016,3 hPa 0,0 l/m 0,5 km/h (0 Bft) W-SW 0,00 h 0,000 mm 1,0 UV-I 111 W/m 11,2 C 13,5 C 2,0 km/h (1 Bft) 0,00 %
06.05.2015 16:00 13,1 C 87 % 1016,6 hPa 0,0 l/m 0,3 km/h (0 Bft) SW 0,00 h 0,000 mm 1,0 UV-I 114 W/m 11,0 C 13,1 C 1,0 km/h (0 Bft) 0,00 %
06.05.2015 17:00 13,3 C 84 % 1016,6 hPa 0,0 l/m 0,4 km/h (0 Bft) W-SW 0,00 h 0,000 mm 1,0 UV-I 113 W/m 10,7 C 13,3 C 2,0 km/h (1 Bft) 0,00 %
06.05.2015 18:00 13,6 C 84 % 1016,6 hPa 0,0 l/m 0,0 km/h (0 Bft) N 0,75 h 0,000 mm 1,0 UV-I 160 W/m 10,9 C 13,6 C 0,0 km/h (0 Bft) 0,00 %
06.05.2015 19:00 12,9 C 85 % 1016,6 hPa 0,0 l/m 2,6 km/h (1 Bft) W-SW 0,50 h 0,000 mm 1,0 UV-I 69 W/m 10,3 C 12,6 C 5,0 km/h (1 Bft) 0,00 %
06.05.2015 20:00 11,1 C 88 % 1017,1 hPa 0,0 l/m 0,0 km/h (0 Bft) N 0,25 h 0,000 mm 0,0 UV-I 12 W/m 9,2 C 11,1 C 0,0 km/h (0 Bft) 0,00 %
06.05.2015 21:00 10,0 C 93 % 1018,0 hPa 0,0 l/m 0,0 km/h (0 Bft) N 0,00 h 0,000 mm 0,0 UV-I 0 W/m 8,9 C 10,0 C 0,0 km/h (0 Bft) 0,00 %
06.05.2015 22:00 8,8 C 96 % 1018,2 hPa 0,0 l/m 0,0 km/h (0 Bft) N 0,00 h 0,000 mm 0,0 UV-I 0 W/m 8,1 C 8,8 C 0,0 km/h (0 Bft) 0,00 %
06.05.2015 23:00 8,1 C 97 % 1018,5 hPa 0,0 l/m 0,0 km/h (0 Bft) N 0,00 h 0,000 mm 0,0 UV-I 0 W/m 7,7 C 8,1 C 0,0 km/h (0 Bft) 0,00 %
07.05.2015 00:00 7,8 C 99 % 1018,9 hPa 0,0 l/m 0,0 km/h (0 Bft) N 0,00 h 0,000 mm 0,0 UV-I 0 W/m 7,6 C 7,8 C 0,0 km/h (0 Bft) 0,00 %
07.05.2015 01:00 7,5 C 98 % 1019,2 hPa 0,0 l/m 0,0 km/h (0 Bft) N 0,00 h 0,000 mm 0,0 UV-I 0 W/m 7,1 C 7,5 C 0,0 km/h (0 Bft) 0,00 %
07.05.2015 02:00 7,5 C 99 % 1019,2 hPa 0,0 l/m 0,0 km/h (0 Bft) N 0,00 h 0,000 mm 0,0 UV-I 0 W/m 7,3 C 7,5 C 0,0 km/h (0 Bft) 0,00 %
07.05.2015 03:00 7,7 C 99 % 1019,1 hPa 0,0 l/m 0,0 km/h (0 Bft) N 0,00 h 0,000 mm 0,0 UV-I 0 W/m 7,5 C 7,7 C 0,0 km/h (0 Bft) 0,00 %
07.05.2015 04:00 7,5 C 98 % 1019,5 hPa 0,0 l/m 0,0 km/h (0 Bft) N 0,00 h 0,000 mm 0,0 UV-I 0 W/m 7,2 C 7,5 C 0,0 km/h (0 Bft) 0,00 %
07.05.2015 05:00 7,9 C 99 % 1019,7 hPa 0,0 l/m 0,0 km/h (0 Bft) N 0,00 h 0,000 mm 0,0 UV-I 1 W/m 7,8 C 7,9 C 0,0 km/h (0 Bft) 0,00 %
07.05.2015 06:00 9,1 C 97 % 1020,1 hPa 0,0 l/m 0,0 km/h (0 Bft) N 0,50 h 0,000 mm 1,0 UV-I 59 W/m 8,6 C 9,1 C 0,0 km/h (0 Bft) 0,00 %
07.05.2015 07:00 10,5 C 89 % 1020,3 hPa 0,0 l/m 0,0 km/h (0 Bft) N 0,00 h 0,000 mm 1,0 UV-I 117 W/m 8,7 C 10,5 C 0,0 km/h (0 Bft) 0,00 %
07.05.2015 08:00 12,3 C 82 % 1020,1 hPa 0,0 l/m 0,0 km/h (0 Bft) N 0,00 h 0,000 mm 2,0 UV-I 202 W/m 9,4 C 12,3 C 0,0 km/h (0 Bft) 0,00 %
07.05.2015 09:00 13,6 C 78 % 1020,0 hPa 0,0 l/m 2,1 km/h (1 Bft) S-SW 0,25 h 0,000 mm 2,7 UV-I 291 W/m 9,8 C 13,6 C 5,0 km/h (1 Bft) 0,00 %
07.05.2015 10:00 15,0 C 71 % 1019,8 hPa 0,0 l/m 2,1 km/h (1 Bft) S-SW 0,00 h 0,000 mm 3,0 UV-I 342 W/m 9,8 C 15,0 C 5,0 km/h (1 Bft) 0,00 %
07.05.2015 11:00 15,6 C 71 % 1019,9 hPa 0,0 l/m 1,3 km/h (1 Bft) NW 0,25 h 0,000 mm 3,3 UV-I 335 W/m 10,3 C 15,6 C 3,0 km/h (1 Bft) 0,00 %
07.05.2015 12:00 16,4 C 60 % 1019,3 hPa 0,0 l/m 0,6 km/h (0 Bft) N-NW 0,00 h 0,000 mm 3,3 UV-I 334 W/m 8,4 C 16,4 C 3,0 km/h (1 Bft) 0,00 %
07.05.2015 13:00 17,0 C 57 % 1018,6 hPa 0,0 l/m 0,0 km/h (0 Bft) NW 0,50 h 0,000 mm 5,3 UV-I 691 W/m 8,3 C 17,0 C 0,0 km/h (0 Bft) 0,00 %
07.05.2015 14:00 18,4 C 55 % 1017,9 hPa 0,0 l/m 1,1 km/h (1 Bft) N 0,75 h 0,000 mm 4,0 UV-I 776 W/m 9,1 C 18,4 C 3,0 km/h (1 Bft) 0,00 %
07.05.2015 15:00 18,9 C 50 % 1017,4 hPa 0,0 l/m 2,1 km/h (1 Bft) W-NW 0,50 h 0,000 mm 2,0 UV-I 647 W/m 8,1 C 18,9 C 4,0 km/h (1 Bft) 0,00 %
07.05.2015 16:00 19,9 C 49 % 1016,9 hPa 0,0 l/m 0,3 km/h (0 Bft) N 1,00 h 0,000 mm 2,0 UV-I 803 W/m 8,7 C 19,9 C 2,0 km/h (1 Bft) 0,00 %
07.05.2015 17:00 19,1 C 49 % 1016,6 hPa 0,0 l/m 0,3 km/h (0 Bft) W-NW 0,50 h 0,000 mm 1,3 UV-I 452 W/m 8,0 C 19,1 C 1,0 km/h (0 Bft) 0,00 %
07.05.2015 18:00 19,4 C 47 % 1016,4 hPa 0,0 l/m 1,7 km/h (1 Bft) SW 1,00 h 0,000 mm 1,0 UV-I 556 W/m 7,7 C 19,4 C 3,0 km/h (1 Bft) 0,00 %
07.05.2015 19:00 18,0 C 52 % 1016,9 hPa 0,0 l/m 0,0 km/h (0 Bft) N 1,00 h 0,000 mm 1,0 UV-I 216 W/m 8,1 C 18,0 C 0,0 km/h (0 Bft) 0,00 %
07.05.2015 20:00 14,9 C 65 % 1017,8 hPa 0,0 l/m 0,0 km/h (0 Bft) N 0,25 h 0,000 mm 0,0 UV-I 5 W/m 8,4 C 14,9 C 0,0 km/h (0 Bft) 0,00 %
07.05.2015 21:00 12,6 C 71 % 1018,7 hPa 0,0 l/m 0,0 km/h (0 Bft) N 0,00 h 0,000 mm 0,0 UV-I 0 W/m 7,5 C 12,6 C 0,0 km/h (0 Bft) 0,00 %
07.05.2015 22:00 11,3 C 78 % 1019,0 hPa 0,0 l/m 0,0 km/h (0 Bft) N 0,00 h 0,000 mm 0,0 UV-I 0 W/m 7,6 C 11,3 C 0,0 km/h (0 Bft) 0,00 %
07.05.2015 23:00 10,4 C 83 % 1019,1 hPa 0,0 l/m 0,0 km/h (0 Bft) N 0,00 h 0,000 mm 0,0 UV-I 0 W/m 7,7 C 10,4 C 0,0 km/h (0 Bft) 0,00 %
08.05.2015 00:00 9,5 C 89 % 1019,1 hPa 0,0 l/m 0,0 km/h (0 Bft) N 0,00 h 0,000 mm 0,0 UV-I 0 W/m 7,9 C 9,5 C 0,0 km/h (0 Bft) 0,00 %
08.05.2015 01:00 10,0 C 88 % 1018,8 hPa 0,0 l/m 0,0 km/h (0 Bft) N 0,00 h 0,000 mm 0,0 UV-I 0 W/m 8,1 C 10,0 C 0,0 km/h (0 Bft) 0,00 %
08.05.2015 02:00 9,6 C 86 % 1018,2 hPa 0,0 l/m 0,0 km/h (0 Bft) N 0,00 h 0,000 mm 0,0 UV-I 0 W/m 7,5 C 9,6 C 0,0 km/h (0 Bft) 0,00 %
08.05.2015 03:00 9,7 C 81 % 1017,8 hPa 0,0 l/m 0,0 km/h (0 Bft) N 0,00 h 0,000 mm 0,0 UV-I 0 W/m 6,5 C 9,7 C 0,0 km/h (0 Bft) 0,00 %
08.05.2015 04:00 8,8 C 84 % 1017,7 hPa 0,0 l/m 0,0 km/h (0 Bft) N 0,00 h 0,000 mm 0,0 UV-I 0 W/m 6,3 C 8,8 C 0,0 km/h (0 Bft) 0,00 %
08.05.2015 05:00 8,5 C 85 % 1017,3 hPa 0,0 l/m 0,0 km/h (0 Bft) N 0,00 h 0,000 mm 0,0 UV-I 0 W/m 6,1 C 8,5 C 0,0 km/h (0 Bft) 0,00 %
08.05.2015 06:00 9,2 C 81 % 1017,2 hPa 0,0 l/m 0,0 km/h (0 Bft) N 0,25 h 0,000 mm 1,0 UV-I 46 W/m 6,2 C 9,2 C 0,0 km/h (0 Bft) 0,00 %
08.05.2015 07:00 10,7 C 79 % 1016,7 hPa 0,0 l/m 3,1 km/h (1 Bft) O-SO 0,25 h 0,000 mm 1,0 UV-I 154 W/m 7,2 C 10,7 C 5,9 km/h (2 Bft) 0,00 %
08.05.2015 08:00 12,3 C 73 % 1016,5 hPa 0,0 l/m 3,5 km/h (1 Bft) O 0,25 h 0,000 mm 2,0 UV-I 252 W/m 7,5 C 12,3 C 6,9 km/h (2 Bft) 0,00 %
08.05.2015 09:00 14,7 C 62 % 1015,8 hPa 0,0 l/m 9,0 km/h (2 Bft) O-SO 1,00 h 0,000 mm 3,0 UV-I 460 W/m 7,6 C 13,4 C 13,9 km/h (3 Bft) 0,00 %
08.05.2015 10:00 16,1 C 61 % 1015,2 hPa 0,0 l/m 6,8 km/h (2 Bft) O-SO 1,00 h 0,000 mm 3,7 UV-I 532 W/m 8,7 C 15,6 C 8,9 km/h (2 Bft) 0,00 %
08.05.2015 11:00 17,7 C 60 % 1014,5 hPa 0,0 l/m 6,7 km/h (2 Bft) O-SO 1,00 h 0,000 mm 5,0 UV-I 635 W/m 9,8 C 16,8 C 9,9 km/h (2 Bft) 0,00 %
08.05.2015 12:00 19,1 C 56 % 1013,8 hPa 0,0 l/m 5,0 km/h (1 Bft) O-SO 1,00 h 0,000 mm 6,0 UV-I 744 W/m 10,1 C 18,7 C 6,9 km/h (2 Bft) 0,00 %
08.05.2015 13:00 20,4 C 55 % 1012,8 hPa 0,0 l/m 0,1 km/h (0 Bft) O 1,00 h 0,000 mm 4,7 UV-I 754 W/m 11,0 C 20,4 C 1,0 km/h (0 Bft) 0,00 %
08.05.2015 14:00 21,6 C 48 % 1012,2 hPa 0,0 l/m 2,7 km/h (1 Bft) O-SO 1,00 h 0,000 mm 4,0 UV-I 742 W/m 10,2 C 21,5 C 4,0 km/h (1 Bft) 0,00 %
08.05.2015 15:00 23,1 C 45 % 1011,5 hPa 0,0 l/m 1,3 km/h (1 Bft) O-SO 1,00 h 0,000 mm 2,0 UV-I 834 W/m 10,4 C 23,1 C 3,0 km/h (1 Bft) 0,00 %
08.05.2015 16:00 22,6 C 45 % 1011,3 hPa 0,0 l/m 1,9 km/h (1 Bft) NO 1,00 h 0,000 mm 2,0 UV-I 516 W/m 9,9 C 22,6 C 3,0 km/h (1 Bft) 0,00 %
08.05.2015 17:00 22,5 C 46 % 1010,7 hPa 0,0 l/m 2,0 km/h (1 Bft) O 1,00 h 0,000 mm 1,3 UV-I 643 W/m 10,2 C 22,5 C 4,0 km/h (1 Bft) 0,00 %
08.05.2015 18:00 21,6 C 45 % 1010,5 hPa 0,0 l/m 1,0 km/h (0 Bft) O-SO 0,75 h 0,000 mm 1,0 UV-I 243 W/m 9,1 C 21,6 C 2,0 km/h (1 Bft) 0,00 %
08.05.2015 19:00 20,4 C 54 % 1010,7 hPa 0,0 l/m 0,0 km/h (0 Bft) N 0,00 h 0,000 mm 0,0 UV-I 57 W/m 10,7 C 20,4 C 0,0 km/h (0 Bft) 0,00 %
08.05.2015 20:00 17,8 C 67 % 1011,4 hPa 0,0 l/m 0,0 km/h (0 Bft) N 0,00 h 0,000 mm 0,0 UV-I 2 W/m 11,6 C 17,8 C 0,0 km/h (0 Bft) 0,00 %
08.05.2015 21:00 15,4 C 76 % 1012,1 hPa 0,0 l/m 0,0 km/h (0 Bft) N 0,00 h 0,000 mm 0,0 UV-I 0 W/m 11,2 C 15,4 C 0,0 km/h (0 Bft) 0,00 %
08.05.2015 22:00 14,8 C 73 % 1012,5 hPa 0,0 l/m 0,1 km/h (0 Bft) N 0,00 h 0,000 mm 0,0 UV-I 0 W/m 10,0 C 14,8 C 1,0 km/h (0 Bft) 0,00 %
08.05.2015 23:00 13,9 C 76 % 1013,1 hPa 0,0 l/m 0,0 km/h (0 Bft) N 0,00 h 0,000 mm 0,0 UV-I 0 W/m 9,6 C 13,9 C 0,0 km/h (0 Bft) 0,00 %
09.05.2015 00:00 13,0 C 78 % 1013,6 hPa 0,0 l/m 0,0 km/h (0 Bft) N 0,00 h 0,000 mm 0,0 UV-I 0 W/m 9,2 C 13,0 C 0,0 km/h (0 Bft) 0,00 %
09.05.2015 01:00 12,4 C 80 % 1014,0 hPa 0,0 l/m 0,0 km/h (0 Bft) N 0,00 h 0,000 mm 0,0 UV-I 0 W/m 9,1 C 12,4 C 0,0 km/h (0 Bft) 0,00 %
09.05.2015 02:00 12,7 C 77 % 1014,3 hPa 0,0 l/m 0,0 km/h (0 Bft) N 0,00 h 0,000 mm 0,0 UV-I 0 W/m 8,8 C 12,7 C 0,0 km/h (0 Bft) 0,00 %
09.05.2015 03:00 12,7 C 78 % 1015,3 hPa 0,0 l/m 2,0 km/h (1 Bft) W-SW 0,00 h 0,000 mm 0,0 UV-I 0 W/m 8,9 C 12,7 C 4,0 km/h (1 Bft) 0,00 %
09.05.2015 04:00 13,0 C 79 % 1015,9 hPa 0,0 l/m 1,5 km/h (1 Bft) SO 0,00 h 0,000 mm 0,0 UV-I 0 W/m 9,4 C 13,0 C 5,0 km/h (1 Bft) 0,00 %
09.05.2015 05:00 12,8 C 79 % 1016,7 hPa 0,0 l/m 3,0 km/h (1 Bft) N-NO 0,00 h 0,000 mm 0,0 UV-I 4 W/m 9,2 C 12,5 C 6,0 km/h (2 Bft) 0,00 %
09.05.2015 06:00 13,4 C 76 % 1017,3 hPa 0,0 l/m 3,1 km/h (1 Bft) W-SW 0,50 h 0,000 mm 1,0 UV-I 74 W/m 9,3 C 13,4 C 5,9 km/h (2 Bft) 0,00 %
09.05.2015 07:00 14,9 C 72 % 1018,0 hPa 0,0 l/m 5,0 km/h (1 Bft) W-SW 0,75 h 0,000 mm 1,0 UV-I 186 W/m 9,8 C 14,5 C 7,9 km/h (2 Bft) 0,00 %
09.05.2015 08:00 15,1 C 72 % 1018,5 hPa 0,0 l/m 4,1 km/h (1 Bft) W-SW 0,00 h 0,000 mm 1,0 UV-I 163 W/m 10,0 C 14,6 C 6,9 km/h (2 Bft) 0,00 %
09.05.2015 09:00 15,6 C 71 % 1019,0 hPa 0,0 l/m 5,4 km/h (1 Bft) S 0,00 h 0,000 mm 2,3 UV-I 207 W/m 10,3 C 14,9 C 7,9 km/h (2 Bft) 0,00 %
09.05.2015 10:00 15,9 C 72 % 1019,4 hPa 0,0 l/m 2,8 km/h (1 Bft) S 0,25 h 0,000 mm 1,7 UV-I 204 W/m 10,9 C 15,8 C 6,0 km/h (2 Bft) 0,00 %
09.05.2015 11:00 16,7 C 66 % 1019,6 hPa 0,0 l/m 3,7 km/h (1 Bft) SW 0,00 h 0,000 mm 2,0 UV-I 259 W/m 10,4 C 16,2 C 6,9 km/h (2 Bft) 0,00 %
09.05.2015 12:00 16,7 C 69 % 1019,8 hPa 0,0 l/m 3,0 km/h (1 Bft) SW 0,00 h 0,000 mm 2,0 UV-I 279 W/m 11,0 C 16,7 C 4,0 km/h (1 Bft) 0,00 %
09.05.2015 13:00 17,3 C 66 % 1019,5 hPa 0,0 l/m 3,6 km/h (1 Bft) W-SW 0,25 h 0,000 mm 3,3 UV-I 435 W/m 10,9 C 16,8 C 6,9 km/h (2 Bft) 0,00 %
09.05.2015 14:00 16,5 C 73 % 1019,4 hPa 0,0 l/m 3,4 km/h (1 Bft) NO 0,00 h 0,000 mm 2,5 UV-I 237 W/m 11,5 C 16,5 C 7,9 km/h (2 Bft) 0,00 %
09.05.2015 15:00 16,7 C 69 % 1019,2 hPa 0,0 l/m 1,8 km/h (1 Bft) SW 0,00 h 0,000 mm 2,3 UV-I 220 W/m 10,9 C 16,7 C 4,0 km/h (1 Bft) 0,00 %
09.05.2015 16:00 18,5 C 62 % 1018,5 hPa 0,0 l/m 1,6 km/h (1 Bft) N 0,75 h 0,000 mm 2,0 UV-I 347 W/m 11,2 C 18,5 C 3,0 km/h (1 Bft) 0,00 %
09.05.2015 17:00 14,2 C 81 % 1019,6 hPa 6,9 l/m 0,0 km/h (0 Bft) N 0,00 h 0,000 mm 0,0 UV-I 26 W/m 10,9 C 14,2 C 0,0 km/h (0 Bft) 0,00 %
09.05.2015 18:00 13,1 C 93 % 1019,7 hPa 0,0 l/m 0,0 km/h (0 Bft) W-SW 0,00 h 0,000 mm 1,0 UV-I 85 W/m 11,9 C 13,1 C 0,0 km/h (0 Bft) 0,00 %
09.05.2015 19:00 12,1 C 93 % 1021,2 hPa 3,3 l/m 0,3 km/h (0 Bft) N 0,00 h 0,000 mm 0,0 UV-I 2 W/m 11,1 C 12,1 C 1,0 km/h (0 Bft) 0,00 %
09.05.2015 20:00 11,7 C 95 % 1021,6 hPa 0,0 l/m 0,1 km/h (0 Bft) N 0,00 h 0,000 mm 0,0 UV-I 0 W/m 11,0 C 11,7 C 1,0 km/h (0 Bft) 0,00 %
09.05.2015 21:00 11,6 C 96 % 1021,6 hPa 0,0 l/m 0,0 km/h (0 Bft) N 0,00 h 0,000 mm 0,0 UV-I 0 W/m 11,0 C 11,6 C 0,0 km/h (0 Bft) 0,00 %
09.05.2015 22:00 11,1 C 96 % 1021,8 hPa 0,0 l/m 0,0 km/h (0 Bft) N 0,00 h 0,000 mm 0,0 UV-I 0 W/m 10,5 C 11,1 C 0,0 km/h (0 Bft) 0,00 %
09.05.2015 23:00 10,8 C 97 % 1021,9 hPa 0,0 l/m 0,0 km/h (0 Bft) N 0,00 h 0,000 mm 0,0 UV-I 0 W/m 10,3 C 10,8 C 0,0 km/h (0 Bft) 0,00 %
10.05.2015 00:00 10,3 C 98 % 1022,4 hPa 0,0 l/m 0,6 km/h (0 Bft) SW 0,00 h 0,000 mm 0,0 UV-I 0 W/m 9,9 C 10,3 C 2,0 km/h (1 Bft) 0,00 %
10.05.2015 01:00 9,9 C 97 % 1022,7 hPa 0,0 l/m 0,3 km/h (0 Bft) W-SW 0,00 h 0,000 mm 0,0 UV-I 0 W/m 9,5 C 9,9 C 1,0 km/h (0 Bft) 0,00 %
10.05.2015 02:00 10,2 C 95 % 1023,0 hPa 0,0 l/m 0,9 km/h (0 Bft) SW 0,00 h 0,000 mm 0,0 UV-I 0 W/m 9,5 C 10,2 C 3,0 km/h (1 Bft) 0,00 %
10.05.2015 03:00 10,0 C 94 % 1023,7 hPa 0,0 l/m 0,7 km/h (0 Bft) SW 0,00 h 0,000 mm 0,0 UV-I 0 W/m 9,1 C 10,0 C 2,0 km/h (1 Bft) 0,00 %
10.05.2015 04:00 10,7 C 91 % 1024,1 hPa 0,0 l/m 0,9 km/h (0 Bft) W-SW 0,00 h 0,000 mm 0,0 UV-I 0 W/m 9,3 C 10,7 C 3,0 km/h (1 Bft) 0,00 %
10.05.2015 05:00 10,6 C 90 % 1024,8 hPa 0,0 l/m 1,5 km/h (1 Bft) W-SW 0,00 h 0,000 mm 0,0 UV-I 5 W/m 9,0 C 10,6 C 2,0 km/h (1 Bft) 0,00 %
10.05.2015 06:00 10,9 C 89 % 1025,6 hPa 0,0 l/m 2,5 km/h (1 Bft) S-SW 0,00 h 0,000 mm 0,0 UV-I 38 W/m 9,1 C 10,9 C 5,0 km/h (1 Bft) 0,00 %
10.05.2015 07:00 11,9 C 86 % 1026,0 hPa 0,0 l/m 0,7 km/h (0 Bft) W-SW 0,25 h 0,000 mm 1,0 UV-I 135 W/m 9,6 C 11,9 C 3,0 km/h (1 Bft) 0,00 %
10.05.2015 08:00 13,9 C 79 % 1026,0 hPa 0,0 l/m 6,3 km/h (2 Bft) SW 0,75 h 0,000 mm 2,0 UV-I 316 W/m 10,2 C 13,3 C 8,9 km/h (2 Bft) 0,00 %
10.05.2015 09:00 15,6 C 68 % 1025,8 hPa 0,0 l/m 2,0 km/h (1 Bft) SW 0,50 h 0,000 mm 2,3 UV-I 324 W/m 9,7 C 15,6 C 4,0 km/h (1 Bft) 0,00 %
10.05.2015 10:00 16,0 C 62 % 1025,8 hPa 0,0 l/m 4,3 km/h (1 Bft) S 0,25 h 0,000 mm 2,0 UV-I 330 W/m 8,7 C 15,8 C 5,9 km/h (2 Bft) 0,00 %
10.05.2015 11:00 15,8 C 63 % 1025,6 hPa 0,0 l/m 3,1 km/h (1 Bft) W-SW 0,25 h 0,000 mm 2,0 UV-I 371 W/m 8,7 C 15,8 C 5,9 km/h (2 Bft) 0,00 %
10.05.2015 12:00 16,6 C 59 % 1025,3 hPa 0,0 l/m 4,0 km/h (1 Bft) S-SO 0,25 h 0,000 mm 3,0 UV-I 323 W/m 8,5 C 16,5 C 8,9 km/h (2 Bft) 0,00 %
10.05.2015 13:00 17,7 C 56 % 1025,1 hPa 0,0 l/m 7,4 km/h (2 Bft) W-NW 0,25 h 0,000 mm 3,0 UV-I 224 W/m 8,8 C 17,1 C 11,9 km/h (2 Bft) 0,00 %
10.05.2015 14:00 18,4 C 53 % 1024,8 hPa 0,0 l/m 4,9 km/h (1 Bft) W-SW 1,00 h 0,000 mm 4,3 UV-I 826 W/m 8,6 C 18,2 C 9,9 km/h (2 Bft) 0,00 %
10.05.2015 15:00 19,2 C 51 % 1024,2 hPa 0,0 l/m 6,6 km/h (2 Bft) W-SW 0,50 h 0,000 mm 2,0 UV-I 649 W/m 8,6 C 18,6 C 9,9 km/h (2 Bft) 0,00 %
10.05.2015 16:00 19,8 C 45 % 1023,7 hPa 0,0 l/m 4,3 km/h (1 Bft) W-SW 0,75 h 0,000 mm 1,7 UV-I 833 W/m 7,4 C 19,6 C 6,9 km/h (2 Bft) 0,00 %
10.05.2015 17:00 19,3 C 45 % 1023,9 hPa 0,0 l/m 8,8 km/h (2 Bft) W-SW 0,50 h 0,000 mm 1,0 UV-I 517 W/m 6,9 C 17,9 C 13,8 km/h (3 Bft) 0,00 %
10.05.2015 18:00 19,5 C 46 % 1023,9 hPa 0,0 l/m 4,8 km/h (1 Bft) W-SW 1,00 h 0,000 mm 1,0 UV-I 509 W/m 7,5 C 18,9 C 8,9 km/h (2 Bft) 0,00 %
10.05.2015 19:00 18,2 C 50 % 1024,4 hPa 0,0 l/m 1,5 km/h (1 Bft) SW 1,00 h 0,000 mm 1,0 UV-I 222 W/m 7,7 C 18,2 C 4,0 km/h (1 Bft) 0,00 %
10.05.2015 20:00 15,8 C 59 % 1025,4 hPa 0,0 l/m 0,3 km/h (0 Bft) N 0,50 h 0,000 mm 0,0 UV-I 10 W/m 7,7 C 15,8 C 1,0 km/h (0 Bft) 0,00 %
10.05.2015 21:00 13,5 C 68 % 1026,4 hPa 0,0 l/m 0,0 km/h (0 Bft) N 0,00 h 0,000 mm 0,0 UV-I 0 W/m 7,7 C 13,5 C 0,0 km/h (0 Bft) 0,00 %
10.05.2015 22:00 12,2 C 72 % 1027,2 hPa 0,0 l/m 0,1 km/h (0 Bft) N 0,00 h 0,000 mm 0,0 UV-I 0 W/m 7,3 C 12,2 C 1,0 km/h (0 Bft) 0,00 %
10.05.2015 23:00 11,2 C 79 % 1027,8 hPa 0,0 l/m 0,0 km/h (0 Bft) N 0,00 h 0,000 mm 0,0 UV-I 0 W/m 7,6 C 11,2 C 0,0 km/h (0 Bft) 0,00 %
Min-Datum _ 07.05.15 08.05.15 05.05.15 - 04.05.15 - - - - - 08.05.15 07.05.15 04.05.15 04.05.15
_ Min-Zeit 01:30 15:00 15:00 - 00:00 - - - - - 06:30 01:30 00:00 00:00
Minimum _ 7,2 C 41 % 1002,5 hPa - 0,0 km/h (0 Bft) - - - - - 6,0 C 7,2 C 0,0 km/h (0 Bft) 0,00 %
Max-Datum _ 05.05.15 04.05.15 10.05.15 09.05.15 10.05.15 - 04.05.15 04.05.15 04.05.15 10.05.15 05.05.15 05.05.15 08.05.15 04.05.15
_ Max-Zeit 17:00 02:00 23:45 17:15 17:45 - 11:00 00:00 13:45 14:00 18:45 17:00 09:30 00:00
Maximum _ 26,8 C 99 % 1028,0 hPa 6,9 l/m 14,0 km/h
W-SW (3 Bft)
- 0,25 h 0,000 mm 6,0 UV-I 995 W/m 18,3 C 26,8 C 19,8 km/h
O-SO (3 Bft)
0,00 %
Durchschnitt _ 15,3 C 76 % 1015,1 hPa #19,5 l/m 1,5 km/h (1 Bft) W-SW #41:15 h #0,000 mm 2,2 UV-I 301 W/m 10,8 C 15,2 C 2,9 km/h (1 Bft) 0,00 %